This is the latest recevied weather packets stored in our database for station/object W6UA-13. If no packets are shown the sender has not sent any weather packets the latest 10 day(s).
| Time | Temp. | Humidity | Pressure | Rain* | Wind** | Luminosity | Snow |
|---|---|---|---|---|---|---|---|
| 1777158300 | 12.78° C | 79% | 1012.3 hPa | 0 mm | - | 100 W/m² | - |
| 1777157400 | 13.89° C | 80% | 1012.3 hPa | 0 mm | - | 172 W/m² | - |
| 1777156500 | 13.89° C | 77% | 1012.5 hPa | 0 mm | - | 127 W/m² | - |
| 1777155600 | 14.44° C | 74% | 1012.7 hPa | 0 mm | - | 111 W/m² | - |
| 1777154699 | 15° C | 73% | 1012.8 hPa | 0 mm | - | 216 W/m² | - |
| 1777153800 | 15.56° C | 71% | 1012.8 hPa | 0 mm | - | 262 W/m² | - |
| 1777152900 | 15.56° C | 68% | 1012.8 hPa | 0 mm | - | 255 W/m² | - |
| 1777152000 | 15.56° C | 66% | 1012.8 hPa | 0 mm | - | 258 W/m² | - |
| 1777151100 | 15° C | 67% | 1012.8 hPa | 0 mm | - | 308 W/m² | - |
| 1777150200 | 15° C | 69% | 1013.1 hPa | 0 mm | - | 283 W/m² | - |
| 1777149300 | 15° C | 69% | 1012.8 hPa | 0 mm | - | 301 W/m² | - |
| 1777148400 | 14.44° C | 72% | 1013 hPa | 0 mm | - | 364 W/m² | - |
| 1777147500 | 14.44° C | 71% | 1013.1 hPa | 0 mm | - | 192 W/m² | - |
| 1777146600 | 15° C | 68% | 1012.9 hPa | 0 mm | - | 160 W/m² | - |
| 1777145700 | 15° C | 67% | 1013.1 hPa | 0 mm | - | 221 W/m² | - |
| 1777144800 | 15° C | 67% | 1013.2 hPa | 0 mm | - | 197 W/m² | - |
| 1777143900 | 14.44° C | 68% | 1013.3 hPa | 0 mm | - | 176 W/m² | - |
| 1777143000 | 14.44° C | 69% | 1013.3 hPa | 0 mm | - | 209 W/m² | - |
| 1777142100 | 15° C | 69% | 1013.3 hPa | 0 mm | - | 234 W/m² | - |
| 1777141200 | 14.44° C | 69% | 1013.3 hPa | 0 mm | - | 262 W/m² | - |
| 1777140300 | 15° C | 68% | 1013.3 hPa | 0 mm | - | 195 W/m² | - |
| 1777139400 | 15° C | 68% | 1013.2 hPa | 0 mm | - | 216 W/m² | - |
| 1777138500 | 14.44° C | 68% | 1013.2 hPa | 0 mm | - | 178 W/m² | - |
| 1777137600 | 14.44° C | 69% | 1013.1 hPa | 0 mm | - | 156 W/m² | - |
| 1777136700 | 13.89° C | 70% | 1013.2 hPa | 0 mm | - | 162 W/m² | - |
* Rain latest hour (hover to see other rain measurements)
** Current wind speed in m/s (hover to see current wind gust speed)